Regional Weather Roundup
Issued by NWS

Home | Current Version | Previous Version | Text Only | Print | Product List | Glossary On
Versions: 1 2 3 4 5 6 7 8 9 10 11 12 13 14 15 16 17 18 19 20 21 22 23 24 25 26 27 28 29 30 31 32 33 34 35 36 37 38 39 40 41 42 43 44 45 46 47 48 49 50
000
ASUS43 KMKX 302200
RWRWI

WISCONSIN REGIONAL WEATHER ROUNDUP
NATIONAL WEATHER SERVICE MILWAUKEE/SULLIVAN WI
500 PM CDT SAT APR 30 2016

NOTE: "FAIR" INDICATES FEW OR NO CLOUDS BELOW 12,000 FEET WITH NO
SIGNIFICANT WEATHER AND/OR OBSTRUCTIONS TO VISIBILITY.

WIZ001-002-006>008-014>016-023>028-302300-
NORTHWEST WISCONSIN

CITY           SKY/WX    TMP DP  RH WIND       PRES   REMARKS
SUPERIOR ARPT  CLOUDY    45  33  63 NE18G24   30.22S
ASHLAND        SUNNY     46  35  65 N21G29    30.22F
HAYWARD        CLOUDY    49  27  42 NE23G32   30.14S
SIREN          CLOUDY    54  28  36 NE21      30.11S
CUMBERLAND     CLOUDY    52  32  46 NE16G26   30.07S
RICE LAKE      CLOUDY    56  34  42 N25G31    30.06F
CHETEK         CLOUDY    57  34  41 NE8G18    30.05S
LADYSMITH      CLOUDY    58  33  38 NE13G20   30.07F
EAU CLAIRE     CLOUDY    57  33  40 E12       30.03R
MENOMONIE      CLOUDY    58  32  38 NE10      30.04R
NEW RICHMOND   CLOUDY    57  31  37 E13G22    30.05R
OSCEOLA        CLOUDY    57  36  44 NE18      30.08S
$$

WIZ003>005-009-010-017-018-302300-
NORTH CENTRAL WISCONSIN

CITY           SKY/WX    TMP DP  RH WIND       PRES   REMARKS
MANITOWISH WTR MOSUNNY   52  33  48 N9        30.11F
ARBOR VITAE    CLOUDY    55  33  44 NE10G18   30.10S
WOODRUFF       CLOUDY    55  33  44 NE10G18   30.10S
RHINELANDER    CLOUDY    56  32  40 NE13G21   30.08F
EAGLE RIVER    CLOUDY    53  29  38 NE15G24   30.10F
LAND O LAKES   PTSUNNY   53  32  44 NE9G17    30.13F
PHILLIPS       CLOUDY    56  34  43 NE12      30.07F
TOMAHAWK       CLOUDY    56  31  39 NE13G20   30.06F
MEDFORD        CLOUDY    56  33  42 E15       30.03S
MERRILL        CLOUDY   N/A N/A N/A E10       30.05F
$$

WIZ029-030-035-036-043>047-302300-
CENTRAL WISCONSIN

CITY           SKY/WX    TMP DP  RH WIND       PRES   REMARKS
WAUSAU         CLOUDY    56  32  40 E14G22    30.03S
MOSINEE        SUNNY     54  30  40 E10       30.04F
MARSHFIELD     CLOUDY    54  31  41 E12       30.02F
STEVENS POINT  CLOUDY    50  28  42 E20G25    30.04F
WAUPACA        CLOUDY    53  33  46 E12       30.04F
WAUTOMA        CLOUDY    51  35  54 E16G25    30.03S
WISC RAPIDS    CLOUDY    53  28  38 E13       30.05S
CAMP DOUGLAS   NOT AVBL
$$

WIZ011>013-019>022-031-037>040-048>050-302300-
NORTHEAST WISCONSIN

CITY           SKY/WX    TMP DP  RH WIND       PRES   REMARKS
ANTIGO         CLOUDY    53  34  48 E13G21    30.06S
SHAWANO        CLOUDY    55  32  42 E17       30.07F
OCONTO         CLOUDY    50  32  50 NE8       30.08F
STURGEON BAY   CLOUDY    50  30  46 NE9       30.10F
GREEN BAY      CLOUDY    51  37  58 NE15      30.06F
MANITOWOC      NOT AVBL
APPLETON       CLOUDY    50  32  50 NE17      30.02F
CLINTONVILLE   CLOUDY    54  27  35 NE14G22   30.05F
OSHKOSH        CLOUDY    51  37  58 NE12      30.01F
$$

WIZ032>034-041-042-053>061-302300-
SOUTHWEST WISCONSIN

CITY           SKY/WX    TMP DP  RH WIND       PRES   REMARKS
LA CROSSE      LGT RAIN  50  39  66 E15G21    30.03R
SPARTA         CLOUDY    52  35  53 E15G23    30.02R
VIROQUA        CLOUDY    45  43  93 E8        30.00R
BOSCOBEL       RAIN      47  47 100 NE10G22   29.98S FOG
PRAIRIE DU CHI LGT RAIN  46  43  88 NE14G22   29.94F
PLATTEVILLE    CLOUDY   N/A N/A N/A NE24G31   29.91F
$$

WIZ056-057-062-063-064-067-068-302300-
SOUTH CENTRAL WISCONSIN

CITY           SKY/WX    TMP DP  RH WIND       PRES   REMARKS
REEDSBURG      RAIN      45  43  95 E5        30.01R
BARABOO/DELLS  RAIN      45  40  83 E7        30.02R
LONE ROCK      NOT AVBL
MINERAL POINT  LGT RAIN  43  43 100 NE17G31   29.94S
MADISON        LGT RAIN  45  40  82 NE12      30.00R
MIDDLETON      CLOUDY    46  40  82 E13       30.01R
WATERTOWN      LGT RAIN  44  44  98 E10       29.99R
MONROE         RAIN      43  41  93 NE22G29   29.93F
JANESVILLE     LGT RAIN  45  45 100 E17G23    29.97R FOG
$$

WIZ051-052-058>065-066-070>072-302300-
SOUTHEAST WISCONSIN

CITY           SKY/WX    TMP DP  RH WIND       PRES   REMARKS
MILWAUKEE      LGT RAIN  42  39  89 NE16      30.00F
WAUKESHA       LGT RAIN  41  37  87 E13G22    30.00F
MILWAUKEE/TIMM RAIN      43  37  81 NE10G17   30.01F
RACINE         LGT RAIN  43  39  86 NE12      30.02R FOG
BURLINGTON     RAIN      42  40  93 E14G20    29.97F
KENOSHA        LGT RAIN  44  41  89 E16       29.98F FOG
FOND DU LAC    LGT RAIN  51  37  58 E13G21    30.01F
SHEBOYGAN      LGT RAIN  46  38  73 NE16G25   30.02F
WEST BEND      LGT RAIN  43  37  81 NE12G20   30.01F
JUNEAU         LGT RAIN  45  40  83 NE13      30.01S
$$

LSZ147-162-302300-
LAKE SUPERIOR

STATION/POSITION TIME  TEMP    WIND        PRES    WAVE
                       AIR SEA DIR/SP/G            HT/PER
                 (UTC) (F)     (DEG/KT/KT) (MB)    (FT/S)
W MID LAKE BUOY  2050   39 37   70/  8/ 10 1025.5F   2/ 4
DEVILS ISLAND    2100   40      90/ 23/ 25 1024.9F
SAXON HARBOR     2100   40      50/ 20/ 25 1022.7S
$$

LMZ867-665-643>646-302300-
LAKE MICHIGAN

STATION/POSITION TIME  TEMP    WIND        PRES    WAVE
                       AIR SEA DIR/SP/G            HT/PER
                 (UTC) (F)     (DEG/KT/KT) (MB)    (FT/S)
CHAMBERS ISLAND  2100   44      10/  8/ 10 1019.6F
N MID LAKE BUOY  2050   43 39   30/ 10/ 10 1019.9F   1
NORTHPORT PIER   2100   48      20/  7/  9 1019.6F
ALGOMA LAKESHORE 2115           50/ 14/ 19   N/A
KEWAUNEE LAKESHO 2100   45      20/ 12/ 15 1017.9F
SHEBOYGAN LAKESH 2100   42      20/ 20/ 22 1018.2F
PORT WASHINGTON  2100   44      40/ 18/ 22 1017.6F
S MID LAKE BUOY  2050   43 40   70/ 14/ 16 1015.5F   1/ 3
KENOSHA   LAKESH 2100   43      50/ 17/ 19 1015.6S
$$

TC  - TEMPERATURE IN CELSIUS
VSB - VISIBILITY IN STATUTE MILES
WCI - WIND CHILL INDEX
HX  - HEAT INDEX





USA.gov is the U.S. government's official web portal to all federal, state and local government web resources and services.